| time (UTC) | temp F | wind direction | speed MPH | gust MPH | rain 1hr in | rain 24hr in | rain mn in | humidity % | barometer mb |
| 20260504201507 | 52 | 315 | 12.0 | 18.0 | 0.00 | 0.24 | 0.02 | 59 | 994.1 |
| 20260504200007 | 52 | 247 | 10.0 | 19.0 | 0.00 | 0.24 | 0.02 | 60 | 993.9 |
| 20260504194507 | 53 | 302 | 5.0 | 13.0 | 0.00 | 0.25 | 0.02 | 59 | 993.9 |
| 20260504193005 | 53 | 319 | 5.0 | 13.0 | 0.00 | 0.25 | 0.02 | 59 | 993.8 |
| 20260504191504 | 53 | 348 | 8.0 | 21.0 | 0.00 | 0.25 | 0.02 | 60 | 993.8 |
| 20260504190006 | 52 | 360 | 5.0 | 20.0 | 0.00 | 0.25 | 0.02 | 61 | 993.7 |
| 20260504184503 | 53 | 268 | 7.0 | 22.0 | 0.00 | 0.27 | 0.02 | 60 | 993.8 |
| 20260504183003 | 53 | 340 | 11.0 | 30.0 | 0.00 | 0.27 | 0.02 | 61 | 993.7 |
| 20260504181501 | 53 | 329 | 11.0 | 24.0 | 0.00 | 0.27 | 0.02 | 61 | 993.6 |
| 20260504180100 | 53 | 360 | 9.0 | 18.0 | 0.00 | 0.27 | 0.02 | 62 | 993.7 |
| 20260504174559 | 53 | 229 | 8.0 | 16.0 | 0.00 | 0.27 | 0.02 | 62 | 993.6 |
| 20260504173101 | 53 | 5 | 8.0 | 17.0 | 0.00 | 0.27 | 0.02 | 62 | 993.5 |
| 20260504171557 | 53 | 349 | 6.0 | 16.0 | 0.00 | 0.27 | 0.02 | 63 | 993.5 |
| 20260504081547 | 39 | 319 | 2.0 | 7.0 | 0.00 | 0.28 | 0.02 | 94 | 996.8 |
| 20260504050014 | 37 | 306 | 4.0 | 7.0 | 0.02 | 0.28 | 0.02 | 95 | 1000.1 |
| 20260504044504 | 37 | 330 | 3.0 | 5.0 | 0.01 | 0.27 | 0.01 | 95 | 1000.4 |
| 20260504043101 | 37 | 321 | 3.0 | 7.0 | 0.02 | 0.27 | 0.01 | 95 | 1000.6 |
| 20260504041557 | 37 | 317 | 3.0 | 7.0 | 0.02 | 0.27 | 0.01 | 95 | 1000.9 |
| 20260504040053 | 37 | 335 | 1.0 | 4.0 | 0.02 | 0.26 | 0.00 | 95 | 1001.4 |
| 20260504034551 | 37 | 59 | 1.0 | 4.0 | 0.03 | 0.26 | 0.26 | 95 | 1001.6 |
| 20260504033048 | 37 | 59 | 1.0 | 3.0 | 0.03 | 0.25 | 0.25 | 95 | 1001.9 |
| 20260504031548 | 37 | 59 | 0.0 | 3.0 | 0.03 | 0.24 | 0.24 | 95 | 1002.2 |
| 20260504030044 | 37 | 59 | 2.0 | 4.0 | 0.03 | 0.24 | 0.24 | 95 | 1002.4 |
| 20260504024545 | 37 | 59 | 2.0 | 4.0 | 0.03 | 0.23 | 0.23 | 95 | 1002.7 |
| 20260504023041 | 37 | 95 | 1.0 | 5.0 | 0.02 | 0.22 | 0.22 | 95 | 1002.8 |
| 20260504021538 | 37 | 111 | 3.0 | 4.0 | 0.02 | 0.21 | 0.21 | 95 | 1003.2 |
| 20260504020048 | 37 | 111 | 3.0 | 5.0 | 0.02 | 0.20 | 0.20 | 95 | 1003.5 |
| 20260504014548 | 37 | 119 | 3.0 | 7.0 | 0.02 | 0.20 | 0.20 | 95 | 1003.6 |
| 20260504013037 | 37 | 105 | 5.0 | 8.0 | 0.02 | 0.20 | 0.20 | 95 | 1003.8 |
| 20260504011531 | 37 | 97 | 5.0 | 10.0 | 0.02 | 0.19 | 0.19 | 95 | 1004.0 |
| 20260504010029 | 37 | 101 | 5.0 | 14.0 | 0.02 | 0.19 | 0.19 | 95 | 1004.1 |
| 20260504004533 | 37 | 111 | 7.0 | 12.0 | 0.02 | 0.18 | 0.18 | 95 | 1004.1 |
| 20260504003027 | 37 | 108 | 7.0 | 15.0 | 0.02 | 0.17 | 0.17 | 95 | 1004.1 |
| 20260504001527 | 37 | 117 | 8.0 | 14.0 | 0.02 | 0.17 | 0.17 | 95 | 1004.3 |
| 20260504000126 | 37 | 120 | 7.0 | 16.0 | 0.02 | 0.17 | 0.17 | 95 | 1004.4 |
| 20260503234526 | 37 | 107 | 5.0 | 12.0 | 0.03 | 0.16 | 0.16 | 95 | 1004.4 |
| 20260503233023 | 37 | 84 | 5.0 | 10.0 | 0.03 | 0.15 | 0.15 | 95 | 1004.5 |
| 20260503231522 | 37 | 90 | 6.0 | 13.0 | 0.04 | 0.15 | 0.15 | 95 | 1004.5 |
| 20260503230021 | 37 | 116 | 6.0 | 12.0 | 0.04 | 0.13 | 0.13 | 95 | 1004.6 |
| 20260503224520 | 38 | 111 | 7.0 | 13.0 | 0.04 | 0.13 | 0.13 | 95 | 1004.7 |
| 20260503223019 | 38 | 114 | 5.0 | 10.0 | 0.05 | 0.12 | 0.12 | 95 | 1004.8 |
| 20260503221518 | 38 | 95 | 6.0 | 13.0 | 0.06 | 0.11 | 0.11 | 95 | 1004.8 |
| 20260503220017 | 37 | 115 | 6.0 | 14.0 | 0.06 | 0.09 | 0.09 | 95 | 1005.0 |
| 20260503214518 | 37 | 108 | 6.0 | 10.0 | 0.06 | 0.09 | 0.09 | 94 | 1005.2 |
| 20260503213014 | 37 | 129 | 6.0 | 12.0 | 0.04 | 0.07 | 0.07 | 94 | 1005.3 |
| 20260503211513 | 37 | 112 | 3.0 | 11.0 | 0.02 | 0.06 | 0.06 | 94 | 1005.4 |
| 20260503210012 | 37 | 90 | 4.0 | 11.0 | 0.01 | 0.04 | 0.04 | 94 | 1005.6 |
| 20260503204512 | 37 | 134 | 5.0 | 11.0 | 0.00 | 0.03 | 0.03 | 94 | 1005.6 |
| 20260503203030 | 37 | 93 | 4.0 | 13.0 | 0.01 | 0.03 | 0.03 | 94 | 1005.5 |